Location: *
(2.5500°S, 65.9667°W)
Time: 12:46:49
(UTC+00:00)

Cosmos 1447 Rocket - Pass Details

Date: 26 October 2021
Orbit: 954 x 996 km, 82.9° (Epoch: 29 November)

Event Time Altitude Azimuth Distance (km) Brightness Sun altitude
Rises 23:22:53 0° 359° (N) 3,621 7.4 -17.7°
Reaches altitude 10° 23:25:22 10° 0° (N) 2,682 6.7 -18.3°
Maximum altitude 23:31:30 81° 87° (E) 980 4.4 -19.8°
Drops below altitude 10° 23:37:44 10° 174° (S) 2,722 6.9 -21.3°
Sets 23:40:16 0° 175° (S) 3,678 7.6 -21.9°
